[Iaude] MPEC X288: 2023 XJ13 [a=0.70,e=0.43,i=9.8,H=27.0]

mpec at marsden.cfa.harvard.edu mpec at marsden.cfa.harvard.edu
Thu Dec 14 17:58:16 EST 2023


M.P.E.C. 2023-X288                            Issued 2023 December 14, 22:56 UT

     The Minor Planet Electronic Circulars contain information on unusual
         minor planets, routine data on comets and natural satellites,
         and occasional editorial announcements.  They are published
    on behalf of Division F of the International Astronomical Union by the
          Minor Planet Center, Smithsonian Astrophysical Observatory,
                          Cambridge, MA 02138, U.S.A.
			  
             Prepared using the Tamkin Foundation Computer Network

                              MPC at CFA.HARVARD.EDU
            URL https://www.minorplanetcenter.net/    ISSN 1523-6714

                                   2023 XJ13                                    


Observations:
     K23X13J*1C2023 12 13.35260408 07 30.112+36 08 51.86         19.93GVEX288G96
     K23X13J 1C2023 12 13.35782208 07 21.367+36 11 11.11         20.20GVEX288G96
     K23X13J 1C2023 12 13.36827308 07 03.457+36 15 53.46         21.07GVEX288G96
     K23X13J KC2023 12 13.44343508 04 53.137+36 49 23.77         20.77GVEX288I52
     K23X13J KC2023 12 13.44398608 04 52.147+36 49 38.28         20.88GVEX288I52
     K23X13J 2C2023 12 14.10137107 44 43.462+41 55 20.32         20.0 GVEX288J04
     K23X13J KC2023 12 14.26650607 38 55.421+43 13 36.01         20.05GVEX288I52
     K23X13J KC2023 12 14.26733607 38 53.419+43 14 01.03         20.22GVEX288I52
     K23X13J KC2023 12 14.26900307 38 49.456+43 14 51.29         20.60GVEX288I52
     K23X13J IC2023 12 14.91450707 10 50.66 +48 28 08.0          20.2 GVEX288L01
     K23X13J pC2023 12 14.91621007 10 45.45 +48 28 58.7          20.3 GVEX288L01
     K23X13J pC2023 12 14.91791307 10 40.18 +48 29 50.1          20.0 GVEX288L01

Observer details:
G96 Mt. Lemmon Survey.  Observer J. K. Hogan.  Measurers E. C. Beshore, D.
    Fay, J. B. Fazekas, D. C. Fuls, A. R. Gibbs, A. D. Grauer, H. Groeller, J.
    K. Hogan, R. A. Kowalski, S. M. Larson, G. J. Leonard, D. Rankin, R. L.
    Seaman, F. C. Shelly, K. W. Wierzchos.  1.5-m reflector + 10K CCD.
I52 Steward Observatory, Mt. Lemmon Station.  Observer K. W. Wierzchos.
    Measurers E. C. Beshore, D. Fay, J. B. Fazekas, D. C. Fuls, A. R. Gibbs,
    A. D. Grauer, H. Groeller, J. K. Hogan, R. A. Kowalski, S. M. Larson, G.
    J. Leonard, D. Rankin, R. L. Seaman, F. C. Shelly, K. W. Wierzchos.  1.0-m
    prime focus + CCD.
J04 ESA Optical Ground Station, Tenerife.  Observers P. Ruiz, F. Ocana, M.
    Micheli, L. Conversi.  Measurers M. Micheli, R. Kresken, F. Ocana.
    1.0-m f/4.4 reflector + CCD.
L01 Visnjan Observatory, Tican.  Observers K. Korlevic, I. Lyon.  Measurer K.
    Korlevic.  1.0-m f/2.9 reflector + CCD.

Orbital elements:
2023 XJ13                                                Earth MOID = 0.0233 AU
Epoch 2023 Sept. 13.0 TT = JDT 2460200.5                MPC                     
M  36.90383              (2000.0)            P               Q                  
n   1.66984140     Peri.  178.42088     -0.21520143     +0.96201430             
a   0.7036433      Node    79.12837     -0.89784971     -0.12724672             
e   0.4345870      Incl.    9.84879     -0.38412790     -0.24153002             
P   0.59           H   27.01          G   0.15           U   8                  
Residuals in seconds of arc
231213 G96  0.6-  0.5+    231213 I52  0.1-  0.1-    231214 I52  0.3-  0.3+
231213 G96  0.5+  0.5-    231214 J04  0.0   0.1+    231214 L01  0.3-  0.2-
231213 G96 (1.2-  1.1+)   231214 I52  0.3+  0.3-    231214 L01  0.2+  0.3-
231213 I52  0.1+  0.1+    231214 I52  0.1-  0.1-    231214 L01  0.1+  0.4+

Ephemeris:
2023 XJ13                a,e,i = 0.70, 0.43, 10                  q = 0.3978
Date    TT    R. A. (2000) Decl.     Delta      r    Elong.  Phase     V
2023 11 14    09 47 59.4 -07 23 17   0.1654  0.9739    79.8    90.6    26.2
...
2023 11 29    09 38 26.5 -01 22 57   0.09392 1.0047    98.5    76.2    24.5
...
2023 12 07    09 18 55.5 +08 48 38   0.05473 1.0094   114.7    62.4    22.9
...
2023 12 13    08 16 00.3 +33 36 57   0.02999 1.0077   139.8    39.1    21.0
2023 12 14    07 48 08.5 +41 05 28   0.02737 1.0069   144.7    34.4    20.6
2023 12 15    07 06 18.7 +49 09 21   0.02562 1.0061   147.5    31.7    20.4
...
2023 12 21    00 24 15.9 +50 23 54   0.03597 0.9982   112.6    65.5    22.1
...
2023 12 29    23 02 14.3 +32 17 59   0.07216 0.9805    85.7    90.1    24.4
...
2024 01 13    22 33 50.2 +22 44 53   0.1443  0.9251    62.2   109.8    26.8

A. U. Tomatic                (C) Copyright 2023 MPC           M.P.E.C. 2023-X288





More information about the Iaude mailing list